iso_date,Year,Hour,Min,DOY,POS_DOY,Lat,Lon,BP,Ts,Ta,has_bp,has_ts,has_ta,BuoyID,Buoy_Type,Buoy_Owner,Logistics,Hemisphere
2021-11-23T16:00:02Z,2021,16,0,327.6667,327.6667,63.458,-60.434,-999.0,0.76,-999.0,no,yes,no,300234068345240,SVPGHI,AOML,UNKNOWN,North
2021-11-23T16:59:57Z,2021,17,0,327.7083,327.7083,63.464,-60.407,-999.0,0.8,-999.0,no,yes,no,300234068345240,SVPGHI,AOML,UNKNOWN,North
2021-11-23T18:00:00Z,2021,18,0,327.75,327.75,63.465,-60.375,-999.0,0.9,-999.0,no,yes,no,300234068345240,SVPGHI,AOML,UNKNOWN,North
2021-11-23T19:00:02Z,2021,19,0,327.7917,327.7917,63.462,-60.348,-999.0,0.83,-999.0,no,yes,no,300234068345240,SVPGHI,AOML,UNKNOWN,North
2021-11-23T19:59:57Z,2021,20,0,327.8333,327.8333,63.455,-60.331,-999.0,0.76,-999.0,no,yes,no,300234068345240,SVPGHI,AOML,UNKNOWN,North
2021-11-23T21:00:00Z,2021,21,0,327.875,327.875,63.444,-60.315,-999.0,0.74,-999.0,no,yes,no,300234068345240,SVPGHI,AOML,UNKNOWN,North
2021-11-23T22:00:02Z,2021,22,0,327.9167,327.9167,63.434,-60.304,-999.0,0.78,-999.0,no,yes,no,300234068345240,SVPGHI,AOML,UNKNOWN,North
2021-11-23T23:03:59Z,2021,23,4,327.9611,327.9611,63.42,-60.304,-999.0,0.77,-999.0,no,yes,no,300234068345240,SVPGHI,AOML,UNKNOWN,North
2021-11-24T00:04:01Z,2021,0,4,328.0028,328.0028,63.409,-60.293,-999.0,0.82,-999.0,no,yes,no,300234068345240,SVPGHI,AOML,UNKNOWN,North
2021-11-24T01:01:03Z,2021,1,1,328.0424,328.0424,63.403,-60.284,-999.0,0.87,-999.0,no,yes,no,300234068345240,SVPGHI,AOML,UNKNOWN,North
2021-11-24T01:59:57Z,2021,2,0,328.0833,328.0833,63.397,-60.269,-999.0,0.93,-999.0,no,yes,no,300234068345240,SVPGHI,AOML,UNKNOWN,North
2021-11-24T03:00:00Z,2021,3,0,328.125,328.125,63.39,-60.249,-999.0,0.9,-999.0,no,yes,no,300234068345240,SVPGHI,AOML,UNKNOWN,North
2021-11-24T04:03:04Z,2021,4,3,328.1688,328.1688,63.387,-60.225,-999.0,0.95,-999.0,no,yes,no,300234068345240,SVPGHI,AOML,UNKNOWN,North
2021-11-24T04:59:57Z,2021,5,0,328.2083,328.2083,63.381,-60.201,-999.0,0.95,-999.0,no,yes,no,300234068345240,SVPGHI,AOML,UNKNOWN,North
2021-11-24T06:00:00Z,2021,6,0,328.25,328.25,63.374,-60.178,-999.0,1.05,-999.0,no,yes,no,300234068345240,SVPGHI,AOML,UNKNOWN,North
2021-11-24T07:00:02Z,2021,7,0,328.2917,328.2917,63.368,-60.163,-999.0,1.09,-999.0,no,yes,no,300234068345240,SVPGHI,AOML,UNKNOWN,North
2021-11-24T07:59:57Z,2021,8,0,328.3333,328.3333,63.358,-60.154,-999.0,1.11,-999.0,no,yes,no,300234068345240,SVPGHI,AOML,UNKNOWN,North
2021-11-24T09:00:00Z,2021,9,0,328.375,328.375,63.345,-60.156,-999.0,1.12,-999.0,no,yes,no,300234068345240,SVPGHI,AOML,UNKNOWN,North
2021-11-24T10:02:03Z,2021,10,2,328.4181,328.4181,63.337,-60.172,-999.0,1.12,-999.0,no,yes,no,300234068345240,SVPGHI,AOML,UNKNOWN,North
2021-11-24T12:00:00Z,2021,12,0,328.5,328.5,63.323,-60.21,-999.0,1.14,-999.0,no,yes,no,300234068345240,SVPGHI,AOML,UNKNOWN,North
2021-11-24T13:00:02Z,2021,13,0,328.5417,328.5417,63.32,-60.234,-999.0,1.14,-999.0,no,yes,no,300234068345240,SVPGHI,AOML,UNKNOWN,North
2021-11-24T13:59:57Z,2021,14,0,328.5833,328.5833,63.321,-60.249,-999.0,1.14,-999.0,no,yes,no,300234068345240,SVPGHI,AOML,UNKNOWN,North
2021-11-24T15:01:00Z,2021,15,1,328.6257,328.6257,63.325,-60.251,-999.0,1.13,-999.0,no,yes,no,300234068345240,SVPGHI,AOML,UNKNOWN,North
2021-11-24T16:00:02Z,2021,16,0,328.6667,328.6667,63.325,-60.249,-999.0,1.14,-999.0,no,yes,no,300234068345240,SVPGHI,AOML,UNKNOWN,North
2021-11-24T16:59:57Z,2021,17,0,328.7083,328.7083,63.327,-60.237,-999.0,1.15,-999.0,no,yes,no,300234068345240,SVPGHI,AOML,UNKNOWN,North
2021-11-24T18:01:00Z,2021,18,1,328.7507,328.7507,63.326,-60.222,-999.0,1.14,-999.0,no,yes,no,300234068345240,SVPGHI,AOML,UNKNOWN,North
2021-11-24T19:00:02Z,2021,19,0,328.7917,328.7917,63.325,-60.203,-999.0,1.15,-999.0,no,yes,no,300234068345240,SVPGHI,AOML,UNKNOWN,North
2021-11-24T19:59:57Z,2021,20,0,328.8333,328.8333,63.316,-60.188,-999.0,1.14,-999.0,no,yes,no,300234068345240,SVPGHI,AOML,UNKNOWN,North
2021-11-24T21:00:00Z,2021,21,0,328.875,328.875,63.307,-60.183,-999.0,1.14,-999.0,no,yes,no,300234068345240,SVPGHI,AOML,UNKNOWN,North
2021-11-24T22:00:02Z,2021,22,0,328.9167,328.9167,63.298,-60.178,-999.0,1.13,-999.0,no,yes,no,300234068345240,SVPGHI,AOML,UNKNOWN,North
2021-11-24T23:00:57Z,2021,23,1,328.959,328.959,63.288,-60.185,-999.0,1.12,-999.0,no,yes,no,300234068345240,SVPGHI,AOML,UNKNOWN,North
2021-11-25T00:00:00Z,2021,0,0,329.0,329.0,63.281,-60.19,-999.0,1.13,-999.0,no,yes,no,300234068345240,SVPGHI,AOML,UNKNOWN,North
2021-11-25T01:02:03Z,2021,1,2,329.0431,329.0431,63.273,-60.193,-999.0,1.09,-999.0,no,yes,no,300234068345240,SVPGHI,AOML,UNKNOWN,North
2021-11-25T01:59:57Z,2021,2,0,329.0833,329.0833,63.265,-60.192,-999.0,1.08,-999.0,no,yes,no,300234068345240,SVPGHI,AOML,UNKNOWN,North
2021-11-25T03:00:00Z,2021,3,0,329.125,329.125,63.258,-60.184,-999.0,1.04,-999.0,no,yes,no,300234068345240,SVPGHI,AOML,UNKNOWN,North
2021-11-25T04:00:02Z,2021,4,0,329.1667,329.1667,63.251,-60.171,-999.0,1.02,-999.0,no,yes,no,300234068345240,SVPGHI,AOML,UNKNOWN,North
2021-11-25T05:00:57Z,2021,5,1,329.209,329.209,63.245,-60.154,-999.0,0.99,-999.0,no,yes,no,300234068345240,SVPGHI,AOML,UNKNOWN,North
2021-11-25T06:01:00Z,2021,6,1,329.2507,329.2507,63.241,-60.135,-999.0,0.96,-999.0,no,yes,no,300234068345240,SVPGHI,AOML,UNKNOWN,North
2021-11-25T07:00:02Z,2021,7,0,329.2917,329.2917,63.234,-60.112,-999.0,0.95,-999.0,no,yes,no,300234068345240,SVPGHI,AOML,UNKNOWN,North
2021-11-25T07:59:57Z,2021,8,0,329.3333,329.3333,63.23,-60.095,-999.0,0.98,-999.0,no,yes,no,300234068345240,SVPGHI,AOML,UNKNOWN,North
2021-11-25T09:00:00Z,2021,9,0,329.375,329.375,63.223,-60.088,-999.0,0.98,-999.0,no,yes,no,300234068345240,SVPGHI,AOML,UNKNOWN,North
2021-11-25T10:00:02Z,2021,10,0,329.4167,329.4167,63.215,-60.093,-999.0,1.04,-999.0,no,yes,no,300234068345240,SVPGHI,AOML,UNKNOWN,North
2021-11-25T10:59:57Z,2021,11,0,329.4583,329.4583,63.208,-60.098,-999.0,1.16,-999.0,no,yes,no,300234068345240,SVPGHI,AOML,UNKNOWN,North
2021-11-25T13:00:02Z,2021,13,0,329.5417,329.5417,63.2,-60.118,-999.0,1.16,-999.0,no,yes,no,300234068345240,SVPGHI,AOML,UNKNOWN,North
2021-11-25T13:59:57Z,2021,14,0,329.5833,329.5833,63.199,-60.12,-999.0,1.16,-999.0,no,yes,no,300234068345240,SVPGHI,AOML,UNKNOWN,North
2021-11-25T15:00:00Z,2021,15,0,329.625,329.625,63.199,-60.114,-999.0,1.18,-999.0,no,yes,no,300234068345240,SVPGHI,AOML,UNKNOWN,North
2021-11-25T18:00:00Z,2021,18,0,329.75,329.75,63.197,-60.051,-999.0,1.18,-999.0,no,yes,no,300234068345240,SVPGHI,AOML,UNKNOWN,North
2021-11-25T19:00:02Z,2021,19,0,329.7917,329.7917,63.194,-60.024,-999.0,1.17,-999.0,no,yes,no,300234068345240,SVPGHI,AOML,UNKNOWN,North
2021-11-25T20:03:59Z,2021,20,4,329.8361,329.8361,63.181,-59.999,-999.0,1.17,-999.0,no,yes,no,300234068345240,SVPGHI,AOML,UNKNOWN,North
2021-11-25T21:00:00Z,2021,21,0,329.875,329.875,63.171,-59.984,-999.0,1.13,-999.0,no,yes,no,300234068345240,SVPGHI,AOML,UNKNOWN,North
2021-11-25T22:00:02Z,2021,22,0,329.9167,329.9167,63.159,-59.978,-999.0,1.11,-999.0,no,yes,no,300234068345240,SVPGHI,AOML,UNKNOWN,North
2021-11-25T22:59:57Z,2021,23,0,329.9583,329.9583,63.148,-59.98,-999.0,1.09,-999.0,no,yes,no,300234068345240,SVPGHI,AOML,UNKNOWN,North
2021-11-26T00:00:00Z,2021,0,0,330.0,330.0,63.139,-59.982,-999.0,1.1,-999.0,no,yes,no,300234068345240,SVPGHI,AOML,UNKNOWN,North
2021-11-26T01:00:02Z,2021,1,0,330.0417,330.0417,63.13,-59.982,-999.0,1.14,-999.0,no,yes,no,300234068345240,SVPGHI,AOML,UNKNOWN,North
2021-11-26T01:59:57Z,2021,2,0,330.0833,330.0833,63.123,-59.98,-999.0,1.12,-999.0,no,yes,no,300234068345240,SVPGHI,AOML,UNKNOWN,North
2021-11-26T03:00:00Z,2021,3,0,330.125,330.125,63.115,-59.974,-999.0,1.08,-999.0,no,yes,no,300234068345240,SVPGHI,AOML,UNKNOWN,North
2021-11-26T04:00:02Z,2021,4,0,330.1667,330.1667,63.107,-59.967,-999.0,1.02,-999.0,no,yes,no,300234068345240,SVPGHI,AOML,UNKNOWN,North
2021-11-26T05:01:58Z,2021,5,2,330.2097,330.2097,63.1,-59.96,-999.0,0.97,-999.0,no,yes,no,300234068345240,SVPGHI,AOML,UNKNOWN,North
2021-11-26T06:00:00Z,2021,6,0,330.25,330.25,63.094,-59.951,-999.0,0.93,-999.0,no,yes,no,300234068345240,SVPGHI,AOML,UNKNOWN,North
2021-11-26T07:00:02Z,2021,7,0,330.2917,330.2917,63.087,-59.939,-999.0,0.87,-999.0,no,yes,no,300234068345240,SVPGHI,AOML,UNKNOWN,North
2021-11-26T07:59:57Z,2021,8,0,330.3333,330.3333,63.075,-59.925,-999.0,0.87,-999.0,no,yes,no,300234068345240,SVPGHI,AOML,UNKNOWN,North
2021-11-26T09:00:00Z,2021,9,0,330.375,330.375,63.063,-59.915,-999.0,0.83,-999.0,no,yes,no,300234068345240,SVPGHI,AOML,UNKNOWN,North
2021-11-26T10:00:02Z,2021,10,0,330.4167,330.4167,63.05,-59.923,-999.0,0.84,-999.0,no,yes,no,300234068345240,SVPGHI,AOML,UNKNOWN,North
2021-11-26T11:04:59Z,2021,11,5,330.4618,330.4618,-90.0,-180.0,-999.0,0.82,-999.0,no,yes,no,300234068345240,SVPGHI,AOML,UNKNOWN,North
2021-11-26T11:58:59Z,2021,11,59,330.4993,330.4993,63.033,-59.969,-999.0,0.8,-999.0,no,yes,no,300234068345240,SVPGHI,AOML,UNKNOWN,North
2021-11-26T13:00:02Z,2021,13,0,330.5417,330.5417,63.027,-59.989,-999.0,0.79,-999.0,no,yes,no,300234068345240,SVPGHI,AOML,UNKNOWN,North
2021-11-26T13:59:57Z,2021,14,0,330.5833,330.5833,63.026,-60.002,-999.0,0.85,-999.0,no,yes,no,300234068345240,SVPGHI,AOML,UNKNOWN,North
2021-11-26T15:00:00Z,2021,15,0,330.625,330.625,63.023,-60.012,-999.0,0.88,-999.0,no,yes,no,300234068345240,SVPGHI,AOML,UNKNOWN,North
2021-11-26T16:00:02Z,2021,16,0,330.6667,330.6667,63.02,-60.018,-999.0,0.93,-999.0,no,yes,no,300234068345240,SVPGHI,AOML,UNKNOWN,North
2021-11-26T16:59:57Z,2021,17,0,330.7083,330.7083,63.017,-60.022,-999.0,0.96,-999.0,no,yes,no,300234068345240,SVPGHI,AOML,UNKNOWN,North
2021-11-26T18:00:00Z,2021,18,0,330.75,330.75,63.012,-60.029,-999.0,0.98,-999.0,no,yes,no,300234068345240,SVPGHI,AOML,UNKNOWN,North
2021-11-26T19:00:02Z,2021,19,0,330.7917,330.7917,63.009,-60.031,-999.0,0.98,-999.0,no,yes,no,300234068345240,SVPGHI,AOML,UNKNOWN,North
2021-11-26T19:59:57Z,2021,20,0,330.8333,330.8333,63.006,-60.025,-999.0,0.98,-999.0,no,yes,no,300234068345240,SVPGHI,AOML,UNKNOWN,North
2021-11-26T21:00:00Z,2021,21,0,330.875,330.875,62.999,-60.027,-999.0,0.97,-999.0,no,yes,no,300234068345240,SVPGHI,AOML,UNKNOWN,North
2021-11-26T22:00:02Z,2021,22,0,330.9167,330.9167,62.993,-60.034,-999.0,0.98,-999.0,no,yes,no,300234068345240,SVPGHI,AOML,UNKNOWN,North
2021-11-26T22:59:57Z,2021,23,0,330.9583,330.9583,62.986,-60.043,-999.0,0.99,-999.0,no,yes,no,300234068345240,SVPGHI,AOML,UNKNOWN,North
2021-11-27T00:00:00Z,2021,0,0,331.0,331.0,62.979,-60.055,-999.0,1.0,-999.0,no,yes,no,300234068345240,SVPGHI,AOML,UNKNOWN,North
2021-11-27T01:00:02Z,2021,1,0,331.0417,331.0417,62.972,-60.073,-999.0,1.01,-999.0,no,yes,no,300234068345240,SVPGHI,AOML,UNKNOWN,North
2021-11-27T01:59:57Z,2021,2,0,331.0833,331.0833,62.967,-60.092,-999.0,1.02,-999.0,no,yes,no,300234068345240,SVPGHI,AOML,UNKNOWN,North
2021-11-27T03:00:00Z,2021,3,0,331.125,331.125,62.963,-60.109,-999.0,1.06,-999.0,no,yes,no,300234068345240,SVPGHI,AOML,UNKNOWN,North
2021-11-27T04:00:02Z,2021,4,0,331.1667,331.1667,62.961,-60.124,-999.0,1.1,-999.0,no,yes,no,300234068345240,SVPGHI,AOML,UNKNOWN,North
2021-11-27T05:03:59Z,2021,5,4,331.2111,331.2111,62.959,-60.136,-999.0,1.15,-999.0,no,yes,no,300234068345240,SVPGHI,AOML,UNKNOWN,North
2021-11-27T06:00:00Z,2021,6,0,331.25,331.25,62.958,-60.14,-999.0,1.15,-999.0,no,yes,no,300234068345240,SVPGHI,AOML,UNKNOWN,North
2021-11-27T07:00:02Z,2021,7,0,331.2917,331.2917,62.955,-60.135,-999.0,1.21,-999.0,no,yes,no,300234068345240,SVPGHI,AOML,UNKNOWN,North
2021-11-27T09:00:00Z,2021,9,0,331.375,331.375,62.945,-60.137,-999.0,1.29,-999.0,no,yes,no,300234068345240,SVPGHI,AOML,UNKNOWN,North
2021-11-27T10:00:02Z,2021,10,0,331.4167,331.4167,62.943,-60.152,-999.0,1.31,-999.0,no,yes,no,300234068345240,SVPGHI,AOML,UNKNOWN,North
2021-11-27T13:00:02Z,2021,13,0,331.5417,331.5417,62.943,-60.213,-999.0,1.36,-999.0,no,yes,no,300234068345240,SVPGHI,AOML,UNKNOWN,North
2021-11-27T13:59:57Z,2021,14,0,331.5833,331.5833,62.944,-60.236,-999.0,1.37,-999.0,no,yes,no,300234068345240,SVPGHI,AOML,UNKNOWN,North
2021-11-27T15:00:00Z,2021,15,0,331.625,331.625,62.944,-60.255,-999.0,1.36,-999.0,no,yes,no,300234068345240,SVPGHI,AOML,UNKNOWN,North
2021-11-27T16:03:04Z,2021,16,3,331.6688,331.6688,62.944,-60.277,-999.0,1.36,-999.0,no,yes,no,300234068345240,SVPGHI,AOML,UNKNOWN,North
2021-11-27T17:03:59Z,2021,17,4,331.7111,331.7111,62.947,-60.295,-999.0,1.35,-999.0,no,yes,no,300234068345240,SVPGHI,AOML,UNKNOWN,North
2021-11-27T19:00:02Z,2021,19,0,331.7917,331.7917,62.952,-60.317,-999.0,1.32,-999.0,no,yes,no,300234068345240,SVPGHI,AOML,UNKNOWN,North
2021-11-27T20:00:57Z,2021,20,1,331.834,331.834,62.956,-60.326,-999.0,1.3,-999.0,no,yes,no,300234068345240,SVPGHI,AOML,UNKNOWN,North
2021-11-27T21:00:00Z,2021,21,0,331.875,331.875,62.957,-60.332,-999.0,1.29,-999.0,no,yes,no,300234068345240,SVPGHI,AOML,UNKNOWN,North
2021-11-27T22:59:57Z,2021,23,0,331.9583,331.9583,62.958,-60.348,-999.0,1.26,-999.0,no,yes,no,300234068345240,SVPGHI,AOML,UNKNOWN,North
2021-11-28T00:02:00Z,2021,0,2,332.0014,332.0014,62.957,-60.362,-999.0,1.24,-999.0,no,yes,no,300234068345240,SVPGHI,AOML,UNKNOWN,North
2021-11-28T01:00:02Z,2021,1,0,332.0417,332.0417,62.954,-60.377,-999.0,1.26,-999.0,no,yes,no,300234068345240,SVPGHI,AOML,UNKNOWN,North
2021-11-28T01:59:57Z,2021,2,0,332.0833,332.0833,62.951,-60.395,-999.0,1.27,-999.0,no,yes,no,300234068345240,SVPGHI,AOML,UNKNOWN,North
2021-11-28T03:00:00Z,2021,3,0,332.125,332.125,62.95,-60.412,-999.0,1.28,-999.0,no,yes,no,300234068345240,SVPGHI,AOML,UNKNOWN,North
2021-11-28T04:00:02Z,2021,4,0,332.1667,332.1667,62.948,-60.425,-999.0,1.29,-999.0,no,yes,no,300234068345240,SVPGHI,AOML,UNKNOWN,North
2021-11-28T05:03:59Z,2021,5,4,332.2111,332.2111,62.949,-60.424,-999.0,1.29,-999.0,no,yes,no,300234068345240,SVPGHI,AOML,UNKNOWN,North
2021-11-28T06:03:01Z,2021,6,3,332.2521,332.2521,62.947,-60.433,-999.0,1.27,-999.0,no,yes,no,300234068345240,SVPGHI,AOML,UNKNOWN,North
2021-11-28T07:00:02Z,2021,7,0,332.2917,332.2917,62.943,-60.432,-999.0,1.27,-999.0,no,yes,no,300234068345240,SVPGHI,AOML,UNKNOWN,North
2021-11-28T07:59:57Z,2021,8,0,332.3333,332.3333,62.937,-60.435,-999.0,1.27,-999.0,no,yes,no,300234068345240,SVPGHI,AOML,UNKNOWN,North
2021-11-28T09:00:00Z,2021,9,0,332.375,332.375,62.932,-60.448,-999.0,1.27,-999.0,no,yes,no,300234068345240,SVPGHI,AOML,UNKNOWN,North
2021-11-28T10:00:02Z,2021,10,0,332.4167,332.4167,62.928,-60.462,-999.0,1.28,-999.0,no,yes,no,300234068345240,SVPGHI,AOML,UNKNOWN,North
2021-11-28T13:00:02Z,2021,13,0,332.5417,332.5417,62.934,-60.52,-999.0,1.29,-999.0,no,yes,no,300234068345240,SVPGHI,AOML,UNKNOWN,North
2021-11-28T13:59:57Z,2021,14,0,332.5833,332.5833,62.934,-60.542,-999.0,1.29,-999.0,no,yes,no,300234068345240,SVPGHI,AOML,UNKNOWN,North
2021-11-28T15:00:00Z,2021,15,0,332.625,332.625,62.934,-60.559,-999.0,1.3,-999.0,no,yes,no,300234068345240,SVPGHI,AOML,UNKNOWN,North
2021-11-28T16:03:04Z,2021,16,3,332.6688,332.6688,62.935,-60.578,-999.0,1.3,-999.0,no,yes,no,300234068345240,SVPGHI,AOML,UNKNOWN,North
2021-11-28T16:59:57Z,2021,17,0,332.7083,332.7083,62.933,-60.593,-999.0,1.3,-999.0,no,yes,no,300234068345240,SVPGHI,AOML,UNKNOWN,North
2021-11-28T18:00:00Z,2021,18,0,332.75,332.75,62.929,-60.61,-999.0,1.31,-999.0,no,yes,no,300234068345240,SVPGHI,AOML,UNKNOWN,North
2021-11-28T19:00:02Z,2021,19,0,332.7917,332.7917,62.925,-60.628,-999.0,1.32,-999.0,no,yes,no,300234068345240,SVPGHI,AOML,UNKNOWN,North
2021-11-28T20:01:58Z,2021,20,2,332.8347,332.8347,62.918,-60.658,-999.0,1.33,-999.0,no,yes,no,300234068345240,SVPGHI,AOML,UNKNOWN,North
2021-11-28T21:00:00Z,2021,21,0,332.875,332.875,62.916,-60.686,-999.0,1.33,-999.0,no,yes,no,300234068345240,SVPGHI,AOML,UNKNOWN,North
2021-11-28T22:00:02Z,2021,22,0,332.9167,332.9167,62.917,-60.71,-999.0,1.34,-999.0,no,yes,no,300234068345240,SVPGHI,AOML,UNKNOWN,North
2021-11-28T23:00:57Z,2021,23,1,332.959,332.959,62.924,-60.725,-999.0,1.34,-999.0,no,yes,no,300234068345240,SVPGHI,AOML,UNKNOWN,North
2021-11-29T00:00:00Z,2021,0,0,333.0,333.0,62.93,-60.732,-999.0,1.34,-999.0,no,yes,no,300234068345240,SVPGHI,AOML,UNKNOWN,North
2021-11-29T01:00:02Z,2021,1,0,333.0417,333.0417,62.932,-60.734,-999.0,1.34,-999.0,no,yes,no,300234068345240,SVPGHI,AOML,UNKNOWN,North
2021-11-29T01:59:57Z,2021,2,0,333.0833,333.0833,62.935,-60.733,-999.0,1.35,-999.0,no,yes,no,300234068345240,SVPGHI,AOML,UNKNOWN,North
2021-11-29T03:00:00Z,2021,3,0,333.125,333.125,62.934,-60.726,-999.0,1.35,-999.0,no,yes,no,300234068345240,SVPGHI,AOML,UNKNOWN,North
2021-11-29T04:00:02Z,2021,4,0,333.1667,333.1667,62.926,-60.715,-999.0,1.35,-999.0,no,yes,no,300234068345240,SVPGHI,AOML,UNKNOWN,North
2021-11-29T04:59:57Z,2021,5,0,333.2083,333.2083,62.913,-60.711,-999.0,1.35,-999.0,no,yes,no,300234068345240,SVPGHI,AOML,UNKNOWN,North
2021-11-29T06:00:00Z,2021,6,0,333.25,333.25,62.899,-60.719,-999.0,1.34,-999.0,no,yes,no,300234068345240,SVPGHI,AOML,UNKNOWN,North
2021-11-29T07:00:02Z,2021,7,0,333.2917,333.2917,62.888,-60.739,-999.0,1.34,-999.0,no,yes,no,300234068345240,SVPGHI,AOML,UNKNOWN,North
2021-11-29T07:59:57Z,2021,8,0,333.3333,333.3333,62.879,-60.766,-999.0,1.33,-999.0,no,yes,no,300234068345240,SVPGHI,AOML,UNKNOWN,North
2021-11-29T09:00:00Z,2021,9,0,333.375,333.375,62.874,-60.794,-999.0,1.34,-999.0,no,yes,no,300234068345240,SVPGHI,AOML,UNKNOWN,North
2021-11-29T10:00:02Z,2021,10,0,333.4167,333.4167,62.878,-60.809,-999.0,1.34,-999.0,no,yes,no,300234068345240,SVPGHI,AOML,UNKNOWN,North
2021-11-29T10:59:57Z,2021,11,0,333.4583,333.4583,62.882,-60.824,-999.0,1.34,-999.0,no,yes,no,300234068345240,SVPGHI,AOML,UNKNOWN,North
2021-11-29T12:00:00Z,2021,12,0,333.5,333.5,62.886,-60.835,-999.0,1.34,-999.0,no,yes,no,300234068345240,SVPGHI,AOML,UNKNOWN,North
2021-11-29T13:00:02Z,2021,13,0,333.5417,333.5417,62.892,-60.841,-999.0,1.34,-999.0,no,yes,no,300234068345240,SVPGHI,AOML,UNKNOWN,North
2021-11-29T13:59:57Z,2021,14,0,333.5833,333.5833,62.894,-60.84,-999.0,1.34,-999.0,no,yes,no,300234068345240,SVPGHI,AOML,UNKNOWN,North
2021-11-29T15:00:00Z,2021,15,0,333.625,333.625,62.892,-60.839,-999.0,1.35,-999.0,no,yes,no,300234068345240,SVPGHI,AOML,UNKNOWN,North
2021-11-29T16:00:02Z,2021,16,0,333.6667,333.6667,62.882,-60.844,-999.0,1.35,-999.0,no,yes,no,300234068345240,SVPGHI,AOML,UNKNOWN,North
2021-11-29T16:59:57Z,2021,17,0,333.7083,333.7083,62.871,-60.858,-999.0,1.35,-999.0,no,yes,no,300234068345240,SVPGHI,AOML,UNKNOWN,North
2021-11-29T19:02:03Z,2021,19,2,333.7931,333.7931,62.853,-60.908,-999.0,1.35,-999.0,no,yes,no,300234068345240,SVPGHI,AOML,UNKNOWN,North
2021-11-29T19:59:57Z,2021,20,0,333.8333,333.8333,62.851,-60.931,-999.0,1.35,-999.0,no,yes,no,300234068345240,SVPGHI,AOML,UNKNOWN,North
2021-11-29T21:00:00Z,2021,21,0,333.875,333.875,62.849,-60.946,-999.0,1.35,-999.0,no,yes,no,300234068345240,SVPGHI,AOML,UNKNOWN,North
2021-11-29T22:00:02Z,2021,22,0,333.9167,333.9167,62.849,-60.957,-999.0,1.35,-999.0,no,yes,no,300234068345240,SVPGHI,AOML,UNKNOWN,North
2021-11-29T22:59:57Z,2021,23,0,333.9583,333.9583,62.85,-60.965,-999.0,1.35,-999.0,no,yes,no,300234068345240,SVPGHI,AOML,UNKNOWN,North
2021-11-30T00:00:00Z,2021,0,0,334.0,334.0,62.851,-60.965,-999.0,1.34,-999.0,no,yes,no,300234068345240,SVPGHI,AOML,UNKNOWN,North
2021-11-30T01:00:02Z,2021,1,0,334.0417,334.0417,62.852,-60.956,-999.0,1.34,-999.0,no,yes,no,300234068345240,SVPGHI,AOML,UNKNOWN,North
2021-11-30T02:01:58Z,2021,2,2,334.0847,334.0847,62.847,-60.952,-999.0,1.34,-999.0,no,yes,no,300234068345240,SVPGHI,AOML,UNKNOWN,North
2021-11-30T03:00:00Z,2021,3,0,334.125,334.125,62.84,-60.947,-999.0,1.34,-999.0,no,yes,no,300234068345240,SVPGHI,AOML,UNKNOWN,North
2021-11-30T04:00:02Z,2021,4,0,334.1667,334.1667,62.829,-60.946,-999.0,1.35,-999.0,no,yes,no,300234068345240,SVPGHI,AOML,UNKNOWN,North
2021-11-30T04:59:57Z,2021,5,0,334.2083,334.2083,62.814,-60.957,-999.0,1.35,-999.0,no,yes,no,300234068345240,SVPGHI,AOML,UNKNOWN,North
2021-11-30T06:00:00Z,2021,6,0,334.25,334.25,62.801,-60.968,-999.0,1.36,-999.0,no,yes,no,300234068345240,SVPGHI,AOML,UNKNOWN,North
2021-11-30T07:03:56Z,2021,7,4,334.2944,334.2944,-90.0,-180.0,-999.0,1.35,-999.0,no,yes,no,300234068345240,SVPGHI,AOML,UNKNOWN,North
2021-11-30T08:00:57Z,2021,8,1,334.334,334.334,62.781,-61.0,-999.0,1.35,-999.0,no,yes,no,300234068345240,SVPGHI,AOML,UNKNOWN,North
2021-11-30T09:00:00Z,2021,9,0,334.375,334.375,62.777,-61.011,-999.0,1.34,-999.0,no,yes,no,300234068345240,SVPGHI,AOML,UNKNOWN,North
2021-11-30T10:00:02Z,2021,10,0,334.4167,334.4167,62.774,-61.011,-999.0,1.33,-999.0,no,yes,no,300234068345240,SVPGHI,AOML,UNKNOWN,North
2021-11-30T12:00:00Z,2021,12,0,334.5,334.5,62.765,-60.99,-999.0,1.33,-999.0,no,yes,no,300234068345240,SVPGHI,AOML,UNKNOWN,North
2021-11-30T13:00:02Z,2021,13,0,334.5417,334.5417,62.76,-60.978,-999.0,1.33,-999.0,no,yes,no,300234068345240,SVPGHI,AOML,UNKNOWN,North
2021-11-30T14:03:59Z,2021,14,4,334.5861,334.5861,62.752,-60.972,-999.0,1.32,-999.0,no,yes,no,300234068345240,SVPGHI,AOML,UNKNOWN,North
2021-11-30T15:04:01Z,2021,15,4,334.6278,334.6278,62.745,-60.98,-999.0,1.32,-999.0,no,yes,no,300234068345240,SVPGHI,AOML,UNKNOWN,North
2021-11-30T16:00:02Z,2021,16,0,334.6667,334.6667,62.736,-60.993,-999.0,1.32,-999.0,no,yes,no,300234068345240,SVPGHI,AOML,UNKNOWN,North
2021-11-30T16:59:57Z,2021,17,0,334.7083,334.7083,62.733,-61.006,-999.0,1.32,-999.0,no,yes,no,300234068345240,SVPGHI,AOML,UNKNOWN,North
2021-11-30T18:00:00Z,2021,18,0,334.75,334.75,62.73,-61.018,-999.0,1.33,-999.0,no,yes,no,300234068345240,SVPGHI,AOML,UNKNOWN,North
2021-11-30T19:00:02Z,2021,19,0,334.7917,334.7917,62.725,-61.031,-999.0,1.32,-999.0,no,yes,no,300234068345240,SVPGHI,AOML,UNKNOWN,North
2021-11-30T19:59:57Z,2021,20,0,334.8333,334.8333,62.723,-61.04,-999.0,1.32,-999.0,no,yes,no,300234068345240,SVPGHI,AOML,UNKNOWN,North
2021-11-30T21:00:00Z,2021,21,0,334.875,334.875,62.723,-61.04,-999.0,1.32,-999.0,no,yes,no,300234068345240,SVPGHI,AOML,UNKNOWN,North
2021-11-30T22:00:02Z,2021,22,0,334.9167,334.9167,62.724,-61.03,-999.0,1.3,-999.0,no,yes,no,300234068345240,SVPGHI,AOML,UNKNOWN,North
2021-11-30T23:00:57Z,2021,23,1,334.959,334.959,62.723,-61.019,-999.0,1.31,-999.0,no,yes,no,300234068345240,SVPGHI,AOML,UNKNOWN,North
2021-12-01T00:00:00Z,2021,0,0,335.0,335.0,62.716,-61.005,-999.0,1.29,-999.0,no,yes,no,300234068345240,SVPGHI,AOML,UNKNOWN,North
2021-12-01T01:00:02Z,2021,1,0,335.0417,335.0417,62.711,-60.991,-999.0,1.31,-999.0,no,yes,no,300234068345240,SVPGHI,AOML,UNKNOWN,North
2021-12-01T01:59:57Z,2021,2,0,335.0833,335.0833,62.705,-60.983,-999.0,1.32,-999.0,no,yes,no,300234068345240,SVPGHI,AOML,UNKNOWN,North
2021-12-01T03:00:00Z,2021,3,0,335.125,335.125,62.697,-60.982,-999.0,1.32,-999.0,no,yes,no,300234068345240,SVPGHI,AOML,UNKNOWN,North
2021-12-01T04:01:03Z,2021,4,1,335.1674,335.1674,62.688,-60.984,-999.0,1.31,-999.0,no,yes,no,300234068345240,SVPGHI,AOML,UNKNOWN,North
2021-12-01T04:59:57Z,2021,5,0,335.2083,335.2083,62.677,-60.994,-999.0,1.3,-999.0,no,yes,no,300234068345240,SVPGHI,AOML,UNKNOWN,North
2021-12-01T06:00:00Z,2021,6,0,335.25,335.25,62.669,-61.015,-999.0,1.3,-999.0,no,yes,no,300234068345240,SVPGHI,AOML,UNKNOWN,North
2021-12-01T07:00:02Z,2021,7,0,335.2917,335.2917,62.666,-61.031,-999.0,1.31,-999.0,no,yes,no,300234068345240,SVPGHI,AOML,UNKNOWN,North
2021-12-01T07:59:57Z,2021,8,0,335.3333,335.3333,62.662,-61.037,-999.0,1.32,-999.0,no,yes,no,300234068345240,SVPGHI,AOML,UNKNOWN,North
2021-12-01T09:00:00Z,2021,9,0,335.375,335.375,62.661,-61.04,-999.0,1.33,-999.0,no,yes,no,300234068345240,SVPGHI,AOML,UNKNOWN,North
2021-12-01T10:00:02Z,2021,10,0,335.4167,335.4167,62.661,-61.031,-999.0,1.36,-999.0,no,yes,no,300234068345240,SVPGHI,AOML,UNKNOWN,North
2021-12-01T11:02:58Z,2021,11,3,335.4604,335.4604,62.656,-61.011,-999.0,1.39,-999.0,no,yes,no,300234068345240,SVPGHI,AOML,UNKNOWN,North
2021-12-01T12:00:00Z,2021,12,0,335.5,335.5,62.651,-60.993,-999.0,1.41,-999.0,no,yes,no,300234068345240,SVPGHI,AOML,UNKNOWN,North
2021-12-01T13:00:02Z,2021,13,0,335.5417,335.5417,62.644,-60.975,-999.0,1.41,-999.0,no,yes,no,300234068345240,SVPGHI,AOML,UNKNOWN,North
2021-12-01T14:03:59Z,2021,14,4,335.5861,335.5861,62.635,-60.965,-999.0,1.44,-999.0,no,yes,no,300234068345240,SVPGHI,AOML,UNKNOWN,North
2021-12-01T15:04:01Z,2021,15,4,335.6278,335.6278,62.628,-60.968,-999.0,1.44,-999.0,no,yes,no,300234068345240,SVPGHI,AOML,UNKNOWN,North